Location: Dąbrówka
(52.2799°N, 15.8070°E)
Time: 13:39:04
(UTC+01:00)

ISS - Pass Details

Date: 01 February 2019
Orbit: 403 x 411 km, 51.6° (Epoch: 21 February)

Event Time Altitude Azimuth Distance (km) Brightness Sun altitude
Rises 17:19:14 0° 257° (WSW) 2,331 2.5 -5.9°
Reaches altitude 10° 17:21:18 10° 255° (WSW) 1,473 0.8 -6.2°
Maximum altitude 17:24:36 73° 171° (S) 432 -3.7 -6.7°
Drops below altitude 10° 17:27:55 10° 86° (E) 1,480 -1.6 -7.1°
Enters shadow 17:28:07 - 86° (E) 1,565 -1.5 -7.2°
